When you browse on this site, cookies collect data to enhance your experience and personalize the content and advertising you see.
Visit our Privacy Policy to learn more. By continuing to use the site, you agree to this use of cookies and data.
  • In Denmark
  • List of Countries
  • For 7 days
  • Water Temperature
  • Satellite Maps
  • Weather Map
  • Weather Widgets
  • user-avatar
    Login

    Hourly Weather Lewis

    Today, 17 June, Monday

    Time Temperature Precipitation Wind Pressure Humidity
    00:00 +9°C° 0 mm 1 mps 744 mmHg 78%
    01:00 +9°C° 0 mm 1 mps 744 mmHg 79%
    02:00 +9°C° 0 mm 1 mps 743 mmHg 79%
    03:00 +9°C° 0 mm 1 mps 743 mmHg 79%
    04:00 +8°C° 0.2 mm 2 mps 743 mmHg 81%
    05:00 +9°C° 0.2 mm 2 mps 743 mmHg 82%
    06:00 +9°C° 0.2 mm 3 mps 743 mmHg 83%
    07:00 +10°C° 0 mm 3 mps 743 mmHg 80%
    08:00 +11°C° 0 mm 3 mps 743 mmHg 77%
    09:00 +12°C° 0 mm 3 mps 743 mmHg 73%
    10:00 +13°C° 0.6 mm 4 mps 743 mmHg 76%
    11:00 +13°C° 0.6 mm 5 mps 743 mmHg 78%
    12:00 +13°C° 0.6 mm 6 mps 743 mmHg 80%
    13:00 +13°C° 0.6 mm 5 mps 743 mmHg 81%
    14:00 +13°C° 0.6 mm 5 mps 743 mmHg 82%
    15:00 +13°C° 0.6 mm 5 mps 743 mmHg 83%
    16:00 +12°C° 0.6 mm 5 mps 743 mmHg 83%
    17:00 +12°C° 0.6 mm 5 mps 743 mmHg 84%
    18:00 +12°C° 0.6 mm 5 mps 743 mmHg 84%
    19:00 +10°C° 0.2 mm 5 mps 743 mmHg 87%
    20:00 +9°C° 0.2 mm 5 mps 743 mmHg 90%
    21:00 +9°C° 0.2 mm 6 mps 743 mmHg 93%
    22:00 +9°C° 0.4 mm 6 mps 743 mmHg 93%
    23:00 +9°C° 0.4 mm 6 mps 743 mmHg 94%

    Tomorrow, 18 June, Tuesday

    Time Temperature Precipitation Wind Pressure Humidity
    00:00 +8°C° 0.4 mm 7 mps 742 mmHg 94%
    01:00 +9°C° 0.7 mm 7 mps 742 mmHg 94%
    02:00 +9°C° 0.7 mm 7 mps 742 mmHg 93%
    03:00 +9°C° 0.7 mm 7 mps 741 mmHg 93%
    04:00 +9°C° 0.4 mm 7 mps 741 mmHg 92%
    05:00 +9°C° 0.4 mm 7 mps 741 mmHg 92%
    06:00 +9°C° 0.4 mm 7 mps 741 mmHg 92%
    07:00 +9°C° 0.2 mm 7 mps 741 mmHg 87%
    08:00 +10°C° 0.2 mm 8 mps 741 mmHg 82%
    09:00 +11°C° 0.2 mm 9 mps 742 mmHg 77%
    10:00 +11°C° 0.1 mm 9 mps 742 mmHg 77%
    11:00 +11°C° 0.1 mm 10 mps 742 mmHg 78%
    12:00 +11°C° 0.1 mm 10 mps 743 mmHg 78%
    13:00 +11°C° 0.1 mm 10 mps 743 mmHg 76%
    14:00 +12°C° 0.1 mm 9 mps 743 mmHg 74%
    15:00 +12°C° 0.1 mm 9 mps 744 mmHg 73%
    16:00 +11°C° 0.1 mm 8 mps 744 mmHg 77%
    17:00 +11°C° 0.1 mm 8 mps 744 mmHg 80%
    18:00 +10°C° 0.1 mm 7 mps 744 mmHg 84%
    19:00 +10°C° 0.1 mm 7 mps 745 mmHg 85%
    20:00 +9°C° 0.1 mm 6 mps 745 mmHg 86%
    21:00 +9°C° 0.1 mm 6 mps 745 mmHg 87%
    22:00 +9°C° 0.1 mm 6 mps 745 mmHg 87%
    23:00 +9°C° 0.1 mm 6 mps 745 mmHg 88%

    Day after tomorrow, 19 June, Wednesday

    Time Temperature Precipitation Wind Pressure Humidity
    00:00 +9°C° 0.1 mm 6 mps 745 mmHg 89%
    01:00 +8°C° 0.2 mm 6 mps 745 mmHg 91%
    02:00 +8°C° 0.2 mm 6 mps 745 mmHg 92%
    03:00 +8°C° 0.2 mm 6 mps 745 mmHg 93%
    04:00 +9°C° 0.2 mm 5 mps 745 mmHg 92%
    05:00 +9°C° 0.2 mm 5 mps 744 mmHg 91%
    06:00 +9°C° 0.2 mm 5 mps 744 mmHg 90%
    07:00 +9°C° 0.2 mm 5 mps 744 mmHg 89%
    08:00 +9°C° 0.2 mm 5 mps 744 mmHg 88%
    09:00 +10°C° 0.2 mm 5 mps 744 mmHg 87%
    10:00 +10°C° 0.3 mm 5 mps 744 mmHg 87%
    11:00 +10°C° 0.3 mm 5 mps 744 mmHg 87%
    12:00 +10°C° 0.3 mm 5 mps 744 mmHg 86%
    13:00 +12°C° 0.1 mm 5 mps 744 mmHg 83%
    14:00 +12°C° 0.1 mm 5 mps 744 mmHg 79%
    15:00 +13°C° 0.1 mm 5 mps 743 mmHg 76%
    16:00 +13°C° 0.1 mm 5 mps 743 mmHg 75%
    17:00 +12°C° 0.1 mm 5 mps 743 mmHg 73%
    18:00 +12°C° 0.1 mm 4 mps 743 mmHg 72%
    19:00 +11°C° 0.1 mm 4 mps 743 mmHg 77%
    20:00 +10°C° 0.1 mm 4 mps 743 mmHg 81%
    21:00 +9°C° 0.1 mm 3 mps 743 mmHg 86%
    22:00 +9°C° 0 mm 3 mps 743 mmHg 88%
    23:00 +8°C° 0 mm 3 mps 742 mmHg 90%

    20 June, Thursday

    Time Temperature Precipitation Wind Pressure Humidity
    00:00 +7°C° 0 mm 3 mps 742 mmHg 92%
    01:00 +7°C° 0 mm 3 mps 742 mmHg 92%
    02:00 +8°C° 0 mm 3 mps 742 mmHg 92%
    03:00 +8°C° 0 mm 3 mps 742 mmHg 92%
    04:00 +8°C° 0.1 mm 3 mps 741 mmHg 90%
    05:00 +9°C° 0.1 mm 3 mps 741 mmHg 88%
    06:00 +10°C° 0.1 mm 3 mps 741 mmHg 85%
    07:00 +10°C° 0.2 mm 3 mps 741 mmHg 80%
    08:00 +11°C° 0.2 mm 3 mps 742 mmHg 75%
    09:00 +12°C° 0.2 mm 3 mps 742 mmHg 70%
    10:00 +13°C° 0.2 mm 4 mps 742 mmHg 69%
    11:00 +13°C° 0.2 mm 4 mps 742 mmHg 68%
    12:00 +13°C° 0.2 mm 4 mps 742 mmHg 67%
    13:00 +13°C° 0.3 mm 4 mps 743 mmHg 67%
    14:00 +13°C° 0.3 mm 4 mps 743 mmHg 67%
    15:00 +13°C° 0.3 mm 4 mps 743 mmHg 67%
    16:00 +12°C° 0.1 mm 4 mps 743 mmHg 69%
    17:00 +12°C° 0.1 mm 4 mps 744 mmHg 70%
    18:00 +12°C° 0.1 mm 4 mps 744 mmHg 71%
    19:00 +11°C° 0.1 mm 4 mps 744 mmHg 75%
    20:00 +10°C° 0.1 mm 4 mps 745 mmHg 79%
    21:00 +8°C° 0.1 mm 4 mps 745 mmHg 84%
    22:00 +7°C° 0 mm 4 mps 746 mmHg 82%
    23:00 +7°C° 0 mm 4 mps 746 mmHg 81%

    21 June, Friday

    Time Temperature Precipitation Wind Pressure Humidity
    00:00 +7°C° 0 mm 4 mps 746 mmHg 80%
    01:00 +7°C° 0.1 mm 4 mps 746 mmHg 80%
    02:00 +7°C° 0.1 mm 4 mps 747 mmHg 81%
    03:00 +7°C° 0.1 mm 4 mps 747 mmHg 82%
    04:00 +7°C° 0.1 mm 4 mps 747 mmHg 80%
    05:00 +7°C° 0.1 mm 5 mps 747 mmHg 79%
    06:00 +7°C° 0.1 mm 5 mps 747 mmHg 77%
    07:00 +8°C° 0.2 mm 5 mps 748 mmHg 76%
    08:00 +8°C° 0.2 mm 5 mps 748 mmHg 75%
    09:00 +9°C° 0.2 mm 6 mps 748 mmHg 75%
    10:00 +9°C° 0.2 mm 6 mps 749 mmHg 73%
    11:00 +9°C° 0.2 mm 6 mps 749 mmHg 72%
    12:00 +10°C° 0.2 mm 6 mps 749 mmHg 71%
    13:00 +10°C° 0.1 mm 7 mps 750 mmHg 69%
    14:00 +10°C° 0.1 mm 7 mps 750 mmHg 67%
    15:00 +11°C° 0.1 mm 7 mps 750 mmHg 66%
    16:00 +10°C° 0.1 mm 7 mps 750 mmHg 67%
    17:00 +10°C° 0.1 mm 6 mps 751 mmHg 68%
    18:00 +10°C° 0.1 mm 6 mps 751 mmHg 70%
    19:00 +9°C° 0.1 mm 5 mps 751 mmHg 75%
    20:00 +8°C° 0.1 mm 4 mps 752 mmHg 80%
    21:00 +8°C° 0.1 mm 3 mps 752 mmHg 85%
    22:00 +8°C° 0 mm 3 mps 752 mmHg 87%
    23:00 +7°C° 0 mm 3 mps 752 mmHg 90%

    22 June, Saturday

    Time Temperature Precipitation Wind Pressure Humidity
    00:00 +6°C° 0 mm 2 mps 753 mmHg 92%
    01:00 +6°C° 0 mm 2 mps 753 mmHg 93%
    02:00 +6°C° 0 mm 2 mps 753 mmHg 93%
    03:00 +6°C° 0 mm 2 mps 753 mmHg 94%
    04:00 +7°C° 0 mm 2 mps 753 mmHg 90%
    05:00 +8°C° 0 mm 2 mps 753 mmHg 87%
    06:00 +10°C° 0 mm 1 mps 753 mmHg 84%
    07:00 +10°C° 0 mm 2 mps 754 mmHg 78%
    08:00 +12°C° 0 mm 2 mps 754 mmHg 73%
    09:00 +13°C° 0 mm 2 mps 754 mmHg 68%
    10:00 +12°C° 0.1 mm 3 mps 754 mmHg 67%
    11:00 +12°C° 0.1 mm 4 mps 754 mmHg 66%
    12:00 +13°C° 0.1 mm 4 mps 755 mmHg 65%
    13:00 +13°C° 0.1 mm 5 mps 755 mmHg 64%
    14:00 +13°C° 0.1 mm 5 mps 755 mmHg 63%
    15:00 +13°C° 0.1 mm 5 mps 755 mmHg 62%
    16:00 +12°C° 0 mm 4 mps 755 mmHg 64%
    17:00 +12°C° 0 mm 4 mps 755 mmHg 67%
    18:00 +12°C° 0 mm 3 mps 755 mmHg 69%
    19:00 +11°C° 0 mm 3 mps 755 mmHg 74%
    20:00 +10°C° 0 mm 2 mps 756 mmHg 80%
    21:00 +9°C° 0 mm 1 mps 756 mmHg 85%
    22:00 +9°C° 0 mm 1 mps 756 mmHg 87%
    23:00 +8°C° 0 mm 1 mps 756 mmHg 89%
    Show more